Weather History for Ohio State University, OH

Change the Weather History Date:

Monday, April 1, 2013

  Actual Average Record
Temperature  
Mean Temperature 39 °F -  
Max Temperature 46 °F 56 °F 75 °F (2014)
Min Temperature 30 °F 36 °F 28 °F (1997)
Degree Days  
Heating Degree Days 26    
Moisture  
Dew Point 22 °F    
Average Humidity 52    
Maximum Humidity 82    
Minimum Humidity 34    
Precipitation  
Precipitation 0.00 in - - ()
Sea Level Pressure  
Sea Level Pressure 29.97 in    
Wind  
Wind Speed 11 mph (NW)    
Max Wind Speed 20 mph    
Max Gust Speed 30 mph    
Visibility 10 miles    
Events      
Averages and records for this station are not official NWS values.
T = Trace of Precipitation, MM = Missing Value Source: NWS Daily Summary

Daily Weather History Graph

Daily Weather History Graph

Search for Another Location

Airport:

Trip Planner

Search our weather history database for the weather conditions in past years. The results will help you decide how hot, cold, wet, or windy it might be!

Date:

Astronomy

Apr. 01, 2013 Rise Set
Actual Time 7:15 AM EDT 7:56 PM EDT
Civil Twilight 6:48 AM EDT 8:24 PM EDT
Nautical Twilight 6:16 AM EDT 8:56 PM EDT
Astronomical Twilight 5:42 AM EDT 9:30 PM EDT
Moon 1:04 AM EDT (4/1) 11:01 AM EDT (4/1)
Length of Visible Light 13h 35m
Length of Day
12h 41m
Waning Gibbous, 67% of the Moon is Illuminated
Apr 1
Waning Gibbous
Apr 3
Last Quarter
Apr 10
New
Apr 18
First Quarter
Apr 25
Full

Hourly Weather History & Observations

Time (EDT) Temp. Windchill Dew Point Humidity Pressure Visibility Wind Dir Wind Speed Gust Speed Precip Events Conditions
12:53 AM 46.0 °F 41.4 °F 39.0 °F 76% 29.76 in 10.0 mi West 9.2 mph - N/A   Clear
1:53 AM 44.1 °F 38.6 °F 39.0 °F 82% 29.76 in 10.0 mi West 10.4 mph - N/A   Clear
2:53 AM 43.0 °F 37.2 °F 34.0 °F 71% 29.78 in 10.0 mi NW 10.4 mph - N/A   Clear
3:53 AM 39.9 °F 33.4 °F 32.0 °F 73% 29.81 in 10.0 mi NNW 10.4 mph - N/A   Clear
4:53 AM 39.0 °F 32.8 °F 28.9 °F 67% 29.82 in 10.0 mi NW 9.2 mph - N/A   Mostly Cloudy
5:53 AM 37.9 °F 31.5 °F 28.0 °F 68% 29.87 in 10.0 mi WNW 9.2 mph - N/A   Mostly Cloudy
6:53 AM 37.9 °F 32.1 °F 28.9 °F 70% 29.90 in 10.0 mi WNW 8.1 mph - N/A   Overcast
8:53 AM 36.0 °F 29.0 °F 27.0 °F 70% 29.96 in 10.0 mi NNW 9.2 mph - N/A   Overcast
9:53 AM 36.0 °F 26.7 °F 14.0 °F 41% 29.99 in 10.0 mi NW 15.0 mph 23.0 mph N/A   Mostly Cloudy
10:53 AM 37.0 °F 28.9 °F 17.1 °F 44% 30.00 in 10.0 mi North 12.7 mph 20.7 mph N/A   Scattered Clouds
12:53 PM 39.9 °F 32.5 °F 16.0 °F 38% 30.03 in 10.0 mi NW 12.7 mph 24.2 mph N/A   Scattered Clouds
1:53 PM 42.1 °F 34.5 °F 17.1 °F 37% 30.03 in 10.0 mi NW 15.0 mph 21.9 mph N/A   Overcast
2:53 PM 41.0 °F 33.9 °F 17.1 °F 38% 30.04 in 10.0 mi WNW 12.7 mph 23.0 mph N/A   Overcast
3:53 PM 42.1 °F 34.5 °F 18.0 °F 38% 30.04 in 10.0 mi NW 15.0 mph - N/A   Mostly Cloudy
4:53 PM 44.1 °F 36.5 °F 18.0 °F 35% 30.04 in 10.0 mi WNW 17.3 mph 24.2 mph N/A   Mostly Cloudy
5:53 PM 43.0 °F 34.5 °F 16.0 °F 34% 30.04 in 10.0 mi West 19.6 mph 29.9 mph N/A   Mostly Cloudy
6:53 PM 41.0 °F 33.1 °F 18.0 °F 40% 30.04 in 10.0 mi WNW 15.0 mph - N/A   Mostly Cloudy
7:53 PM 37.9 °F 29.6 °F 16.0 °F 41% 30.06 in 10.0 mi WNW 13.8 mph - N/A   Scattered Clouds
8:53 PM 35.1 °F 27.9 °F 16.0 °F 46% 30.08 in 10.0 mi NW 9.2 mph - N/A   Partly Cloudy
9:53 PM 34.0 °F 27.2 °F 15.1 °F 46% 30.10 in 10.0 mi NW 8.1 mph - N/A   Clear
10:53 PM 32.0 °F 24.8 °F 14.0 °F 48% 30.11 in 10.0 mi NNW 8.1 mph - N/A   Clear
11:53 PM 30.9 °F 22.8 °F 14.0 °F 50% 30.12 in 10.0 mi NNW 9.2 mph - N/A   Clear